| time (UTC) | temp F | wind direction | speed MPH | gust MPH | rain 1hr in | rain 24hr in | rain mn in | humidity % | barometer mb |
| 20260510160421 | 52 | 247 | 1.0 | 1.0 | 0.00 | 0.27 | 0.27 | 90 | 1010.7 |
| 20260510155919 | 52 | 175 | 2.0 | 2.0 | 0.00 | 0.27 | 0.27 | 90 | 1011.0 |
| 20260510155417 | 52 | 304 | 1.0 | 1.0 | 0.00 | 0.27 | 0.27 | 91 | 1010.6 |
| 20260510154913 | 51 | 263 | 0.0 | 1.0 | 0.00 | 0.27 | 0.27 | 93 | 1010.6 |
| 20260510154409 | 51 | 244 | 3.0 | 5.0 | 0.00 | 0.27 | 0.27 | 94 | 1010.7 |
| 20260510153903 | 51 | 297 | 3.0 | 3.0 | 0.00 | 0.27 | 0.27 | 96 | 1010.5 |
| 20260510153400 | 50 | 245 | 3.0 | 3.0 | 0.00 | 0.27 | 0.27 | 96 | 1010.6 |
| 20260510152856 | 51 | 302 | 1.0 | 2.0 | 0.00 | 0.27 | 0.27 | 97 | 1010.3 |
| 20260510152353 | 50 | 233 | 3.0 | 3.0 | 0.00 | 0.27 | 0.27 | 97 | 1010.5 |
| 20260510151849 | 51 | 344 | 3.0 | 3.0 | 0.00 | 0.27 | 0.27 | 98 | 1010.5 |
| 20260510151348 | 51 | 298 | 3.0 | 3.0 | 0.12 | 0.27 | 0.27 | 98 | 1010.5 |
| 20260510150843 | 50 | 292 | 3.0 | 5.0 | 0.12 | 0.27 | 0.27 | 98 | 1010.0 |
| 20260510150339 | 50 | 261 | 3.0 | 3.0 | 0.19 | 0.25 | 0.25 | 98 | 1010.2 |
| 20260510145836 | 50 | 3 | 3.0 | 3.0 | 0.24 | 0.25 | 0.25 | 98 | 1010.5 |
| 20260510145332 | 51 | 300 | 2.0 | 2.0 | 0.12 | 0.22 | 0.22 | 98 | 1010.1 |
| 20260510144829 | 51 | 292 | 4.0 | 5.0 | 0.24 | 0.21 | 0.21 | 98 | 1009.9 |
| 20260510144325 | 51 | 276 | 3.0 | 5.0 | 0.28 | 0.20 | 0.20 | 98 | 1009.8 |
| 20260510143825 | 51 | 355 | 2.0 | 2.0 | 0.19 | 0.17 | 0.17 | 98 | 1009.8 |
| 20260510143321 | 51 | 290 | 1.0 | 2.0 | 0.26 | 0.15 | 0.15 | 98 | 1009.7 |
| 20260510142819 | 51 | 288 | 2.0 | 3.0 | 0.31 | 0.15 | 0.15 | 97 | 1009.7 |
| 20260510142315 | 51 | 284 | 4.0 | 7.0 | 0.47 | 0.12 | 0.12 | 97 | 1009.5 |
| 20260510141812 | 52 | 307 | 3.0 | 3.0 | 0.28 | 0.09 | 0.09 | 97 | 1009.6 |
| 20260510141310 | 53 | 285 | 1.0 | 1.0 | 0.00 | 0.04 | 0.04 | 96 | 1009.4 |
| 20260510140807 | 53 | 315 | 2.0 | 2.0 | 0.00 | 0.04 | 0.04 | 96 | 1009.4 |
| 20260510140302 | 53 | 305 | 3.0 | 3.0 | 0.00 | 0.04 | 0.04 | 96 | 1009.4 |
| 20260510135802 | 53 | 306 | 1.0 | 2.0 | 0.00 | 0.04 | 0.04 | 96 | 1009.4 |
| 20260510135258 | 53 | 311 | 1.0 | 1.0 | 0.00 | 0.04 | 0.04 | 95 | 1009.4 |
| 20260510134755 | 53 | 298 | 1.0 | 2.0 | 0.00 | 0.04 | 0.04 | 95 | 1009.3 |
| 20260510134252 | 53 | 282 | 1.0 | 1.0 | 0.00 | 0.04 | 0.04 | 95 | 1009.2 |
| 20260510133748 | 53 | 220 | 2.0 | 2.0 | 0.00 | 0.04 | 0.04 | 94 | 1009.3 |
| 20260510133244 | 53 | 304 | 0.0 | 0.0 | 0.00 | 0.04 | 0.04 | 94 | 1009.1 |
| 20260510132740 | 53 | 290 | 0.0 | 1.0 | 0.07 | 0.04 | 0.04 | 94 | 1009.2 |
| 20260510132238 | 53 | 29 | 1.0 | 1.0 | 0.12 | 0.04 | 0.04 | 93 | 1009.2 |
| 20260510131734 | 53 | 284 | 1.0 | 1.0 | 0.12 | 0.03 | 0.03 | 93 | 1009.1 |
| 20260510131233 | 53 | 286 | 0.0 | 0.0 | 0.07 | 0.02 | 0.02 | 92 | 1009.0 |
| 20260510130729 | 54 | 194 | 2.0 | 2.0 | 0.00 | 0.01 | 0.01 | 91 | 1009.1 |
| 20260510130226 | 53 | 16 | 1.0 | 1.0 | 0.00 | 0.01 | 0.01 | 90 | 1009.2 |
| 20260510125722 | 53 | 305 | 0.0 | 1.0 | 0.00 | 0.01 | 0.01 | 90 | 1009.0 |
| 20260510125218 | 53 | 273 | 1.0 | 2.0 | 0.00 | 0.01 | 0.01 | 90 | 1008.9 |
| 20260510124715 | 53 | 267 | 1.0 | 2.0 | 0.00 | 0.01 | 0.01 | 90 | 1009.0 |
| 20260510124213 | 53 | 292 | 1.0 | 2.0 | 0.00 | 0.01 | 0.01 | 90 | 1008.7 |
| 20260510123708 | 53 | 346 | 0.0 | 1.0 | 0.00 | 0.01 | 0.01 | 90 | 1008.7 |
| 20260510123204 | 53 | 143 | 1.0 | 2.0 | 0.00 | 0.01 | 0.01 | 90 | 1008.4 |
| 20260510122700 | 53 | 193 | 3.0 | 5.0 | 0.00 | 0.01 | 0.01 | 90 | 1008.8 |
| 20260510122157 | 53 | 114 | 2.0 | 2.0 | 0.00 | 0.01 | 0.01 | 90 | 1008.9 |
| 20260510121653 | 53 | 221 | 2.0 | 2.0 | 0.00 | 0.01 | 0.01 | 90 | 1008.7 |
| 20260510121151 | 53 | 254 | 3.0 | 3.0 | 0.00 | 0.01 | 0.01 | 90 | 1008.9 |
| 20260510120648 | 53 | 176 | 3.0 | 3.0 | 0.00 | 0.01 | 0.01 | 90 | 1008.7 |
| 20260510120144 | 53 | 180 | 3.0 | 5.0 | 0.00 | 0.01 | 0.01 | 91 | 1008.6 |
| 20260510115640 | 53 | 158 | 1.0 | 2.0 | 0.00 | 0.01 | 0.01 | 91 | 1008.5 |
| 20260510115138 | 53 | 319 | 1.0 | 1.0 | 0.00 | 0.01 | 0.01 | 91 | 1008.6 |
| 20260510114634 | 53 | 179 | 0.0 | 1.0 | 0.00 | 0.01 | 0.01 | 91 | 1008.6 |
| 20260510114130 | 53 | 205 | 3.0 | 3.0 | 0.00 | 0.01 | 0.01 | 91 | 1008.5 |
| 20260510113625 | 53 | 296 | 1.0 | 2.0 | 0.00 | 0.01 | 0.01 | 91 | 1008.8 |
| 20260510113123 | 53 | 145 | 3.0 | 5.0 | 0.00 | 0.01 | 0.01 | 91 | 1008.4 |
| 20260510112620 | 53 | 191 | 3.0 | 3.0 | 0.00 | 0.01 | 0.01 | 91 | 1008.5 |
| 20260510112116 | 53 | 275 | 4.0 | 6.0 | 0.00 | 0.01 | 0.01 | 90 | 1008.3 |
| 20260510111612 | 53 | 268 | 1.0 | 1.0 | 0.00 | 0.01 | 0.01 | 90 | 1008.3 |
| 20260510111108 | 53 | 142 | 3.0 | 3.0 | 0.00 | 0.01 | 0.01 | 90 | 1008.0 |
| 20260510110604 | 53 | 256 | 3.0 | 3.0 | 0.00 | 0.01 | 0.01 | 90 | 1008.5 |
| 20260510105557 | 53 | 193 | 5.0 | 6.0 | 0.00 | 0.01 | 0.01 | 91 | 1008.4 |
| 20260510105051 | 52 | 147 | 1.0 | 1.0 | 0.00 | 0.01 | 0.01 | 92 | 1008.2 |
| 20260510104548 | 52 | 256 | 3.0 | 5.0 | 0.00 | 0.01 | 0.01 | 92 | 1008.0 |
| 20260510104045 | 52 | 202 | 3.0 | 3.0 | 0.00 | 0.01 | 0.01 | 93 | 1007.9 |
| 20260510103542 | 51 | 192 | 3.0 | 3.0 | 0.00 | 0.01 | 0.01 | 94 | 1007.6 |
| 20260510103038 | 51 | 72 | 2.0 | 2.0 | 0.00 | 0.01 | 0.01 | 94 | 1007.8 |
| 20260510102534 | 51 | 261 | 3.0 | 5.0 | 0.00 | 0.01 | 0.01 | 95 | 1008.1 |
| 20260510102030 | 50 | 0 | 1.0 | 1.0 | 0.00 | 0.01 | 0.01 | 95 | 1008.2 |
| 20260510101528 | 50 | 304 | 2.0 | 3.0 | 0.00 | 0.01 | 0.01 | 96 | 1007.7 |
| 20260510101026 | 50 | 269 | 1.0 | 1.0 | 0.00 | 0.01 | 0.01 | 96 | 1007.6 |
| 20260510100522 | 50 | 308 | 0.0 | 1.0 | 0.00 | 0.01 | 0.01 | 96 | 1007.3 |
| 20260510100019 | 50 | 46 | 1.0 | 2.0 | 0.00 | 0.01 | 0.01 | 95 | 1007.3 |
| 20260510095515 | 50 | 127 | 2.0 | 3.0 | 0.00 | 0.01 | 0.01 | 96 | 1007.1 |
| 20260510095014 | 50 | 187 | 3.0 | 3.0 | 0.00 | 0.01 | 0.01 | 96 | 1007.3 |
| 20260510094509 | 50 | 303 | 0.0 | 0.0 | 0.00 | 0.01 | 0.01 | 96 | 1007.6 |
| 20260510094005 | 49 | 161 | 2.0 | 3.0 | 0.00 | 0.01 | 0.01 | 97 | 1007.4 |
| 20260510093501 | 49 | 297 | 0.0 | 0.0 | 0.00 | 0.01 | 0.01 | 97 | 1007.4 |
| 20260510092957 | 49 | 289 | 0.0 | 0.0 | 0.00 | 0.01 | 0.01 | 96 | 1007.4 |
| 20260510092455 | 50 | 340 | 0.0 | 1.0 | 0.00 | 0.01 | 0.01 | 96 | 1007.0 |
| 20260510091954 | 50 | 270 | 1.0 | 1.0 | 0.00 | 0.01 | 0.01 | 96 | 1007.2 |
| 20260510091451 | 50 | 8 | 1.0 | 1.0 | 0.00 | 0.01 | 0.01 | 96 | 1007.1 |
| 20260510090948 | 50 | 342 | 1.0 | 1.0 | 0.00 | 0.01 | 0.01 | 96 | 1006.8 |
| 20260510090445 | 50 | 304 | 0.0 | 0.0 | 0.00 | 0.01 | 0.01 | 95 | 1007.0 |
| 20260510085940 | 50 | 317 | 0.0 | 0.0 | 0.00 | 0.01 | 0.01 | 95 | 1006.9 |
| 20260510085435 | 50 | 302 | 1.0 | 1.0 | 0.00 | 0.01 | 0.01 | 95 | 1006.6 |
| 20260510084931 | 51 | 324 | 0.0 | 0.0 | 0.00 | 0.01 | 0.01 | 95 | 1006.5 |
| 20260510084428 | 51 | 306 | 0.0 | 1.0 | 0.00 | 0.01 | 0.01 | 95 | 1006.8 |
| 20260510083925 | 51 | 286 | 0.0 | 1.0 | 0.00 | 0.01 | 0.01 | 95 | 1006.6 |
| 20260510083421 | 51 | 187 | 4.0 | 6.0 | 0.00 | 0.01 | 0.01 | 95 | 1006.7 |
| 20260510082917 | 51 | 229 | 2.0 | 2.0 | 0.00 | 0.01 | 0.01 | 94 | 1006.8 |
| 20260510082415 | 52 | 283 | 1.0 | 2.0 | 0.00 | 0.01 | 0.01 | 94 | 1006.8 |
| 20260510081914 | 52 | 31 | 0.0 | 1.0 | 0.00 | 0.01 | 0.01 | 93 | 1007.1 |
| 20260510081409 | 52 | 140 | 2.0 | 3.0 | 0.00 | 0.01 | 0.01 | 93 | 1007.1 |
| 20260510080906 | 52 | 127 | 3.0 | 3.0 | 0.00 | 0.01 | 0.01 | 93 | 1007.3 |
| 20260510080400 | 52 | 20 | 0.0 | 1.0 | 0.00 | 0.01 | 0.01 | 93 | 1007.2 |
| 20260510075857 | 52 | 173 | 1.0 | 2.0 | 0.00 | 0.01 | 0.01 | 93 | 1007.3 |
| 20260510075355 | 52 | 133 | 3.0 | 3.0 | 0.00 | 0.01 | 0.01 | 93 | 1007.1 |
| 20260510074851 | 52 | 166 | 3.0 | 3.0 | 0.00 | 0.01 | 0.01 | 93 | 1007.0 |
| 20260510074349 | 52 | 106 | 3.0 | 3.0 | 0.00 | 0.01 | 0.01 | 93 | 1007.0 |
| 20260510073845 | 52 | 340 | 3.0 | 5.0 | 0.00 | 0.01 | 0.01 | 93 | 1006.7 |
| 20260510073340 | 52 | 280 | 2.0 | 2.0 | 0.07 | 0.01 | 0.01 | 92 | 1006.9 |
| 20260510072837 | 52 | 144 | 1.0 | 2.0 | 0.07 | 0.01 | 0.01 | 92 | 1006.8 |
| 20260510072334 | 52 | 189 | 7.0 | 8.0 | 0.07 | 0.01 | 0.01 | 92 | 1006.9 |
| 20260510071830 | 52 | 164 | 4.0 | 5.0 | 0.00 | 0.00 | 0.00 | 91 | 1006.9 |
| 20260510071326 | 53 | 164 | 6.0 | 8.0 | 0.00 | 0.00 | 0.00 | 90 | 1007.1 |
| 20260510070825 | 53 | 171 | 5.0 | 7.0 | 0.00 | 0.00 | 0.00 | 89 | 1007.0 |
| 20260510070321 | 53 | 84 | 4.0 | 5.0 | 0.00 | 0.00 | 0.00 | 88 | 1007.2 |
| 20260510065816 | 53 | 153 | 7.0 | 10.0 | 0.00 | 0.00 | 0.00 | 88 | 1007.4 |
| 20260510065313 | 53 | 248 | 1.0 | 2.0 | 0.00 | 0.00 | 0.00 | 88 | 1007.5 |
| 20260510064810 | 53 | 264 | 4.0 | 5.0 | 0.00 | 0.00 | 0.00 | 87 | 1007.4 |
| 20260510064308 | 54 | 159 | 4.0 | 7.0 | 0.00 | 0.00 | 0.00 | 86 | 1007.2 |
| 20260510063803 | 54 | 188 | 3.0 | 5.0 | 0.00 | 0.00 | 0.00 | 84 | 1007.2 |
| 20260510063300 | 54 | 224 | 5.0 | 8.0 | 0.00 | 0.00 | 0.00 | 84 | 1007.2 |
| 20260510062756 | 54 | 146 | 3.0 | 3.0 | 0.00 | 0.00 | 0.00 | 84 | 1007.1 |
| 20260510062252 | 54 | 186 | 2.0 | 2.0 | 0.00 | 0.00 | 0.00 | 84 | 1006.9 |
| 20260510061747 | 54 | 164 | 5.0 | 7.0 | 0.00 | 0.00 | 0.00 | 83 | 1007.1 |
| 20260510061245 | 54 | 156 | 4.0 | 6.0 | 0.00 | 0.00 | 0.00 | 84 | 1006.8 |
| 20260510060741 | 54 | 228 | 2.0 | 3.0 | 0.00 | 0.00 | 0.00 | 84 | 1007.1 |
| 20260510060238 | 54 | 141 | 4.0 | 8.0 | 0.00 | 0.00 | 0.00 | 84 | 1006.9 |
| 20260510055734 | 54 | 243 | 6.0 | 8.0 | 0.00 | 0.00 | 0.00 | 84 | 1007.1 |
| 20260510055233 | 54 | 122 | 2.0 | 3.0 | 0.00 | 0.00 | 0.00 | 84 | 1007.0 |
| 20260510054732 | 53 | 228 | 4.0 | 5.0 | 0.00 | 0.00 | 0.00 | 84 | 1007.3 |
| 20260510054229 | 53 | 166 | 3.0 | 3.0 | 0.00 | 0.00 | 0.00 | 84 | 1007.0 |
| 20260510053728 | 53 | 1 | 1.0 | 2.0 | 0.00 | 0.00 | 0.00 | 84 | 1007.2 |
| 20260510053225 | 53 | 157 | 3.0 | 3.0 | 0.00 | 0.00 | 0.00 | 84 | 1007.1 |
| 20260510052720 | 53 | 286 | 0.0 | 1.0 | 0.00 | 0.00 | 0.00 | 85 | 1007.3 |
| 20260510052217 | 52 | 194 | 3.0 | 3.0 | 0.00 | 0.00 | 0.00 | 85 | 1007.0 |
| 20260510051713 | 52 | 319 | 0.0 | 1.0 | 0.00 | 0.00 | 0.00 | 85 | 1007.1 |
| 20260510051209 | 52 | 261 | 2.0 | 3.0 | 0.00 | 0.00 | 0.00 | 85 | 1007.1 |
| 20260510050707 | 52 | 99 | 3.0 | 5.0 | 0.00 | 0.00 | 0.00 | 86 | 1007.1 |
| 20260510050204 | 51 | 50 | 3.0 | 5.0 | 0.00 | 0.00 | 0.00 | 86 | 1007.0 |
| 20260510045700 | 51 | 158 | 3.0 | 3.0 | 0.00 | 0.00 | 0.00 | 87 | 1006.9 |
| 20260510045157 | 51 | 247 | 2.0 | 3.0 | 0.00 | 0.00 | 0.00 | 87 | 1007.0 |
| 20260510044653 | 51 | 141 | 1.0 | 1.0 | 0.00 | 0.00 | 0.00 | 87 | 1007.1 |
| 20260510044151 | 51 | 103 | 1.0 | 2.0 | 0.00 | 0.00 | 0.00 | 88 | 1007.0 |
| 20260510043646 | 51 | 209 | 2.0 | 2.0 | 0.00 | 0.00 | 0.00 | 88 | 1007.1 |
| 20260510043143 | 51 | 221 | 1.0 | 1.0 | 0.00 | 0.00 | 0.00 | 88 | 1006.9 |
| 20260510042641 | 51 | 133 | 1.0 | 2.0 | 0.00 | 0.00 | 0.00 | 88 | 1007.0 |
| 20260510042137 | 51 | 105 | 2.0 | 2.0 | 0.00 | 0.00 | 0.00 | 88 | 1006.8 |
| 20260510041634 | 51 | 170 | 1.0 | 2.0 | 0.00 | 0.00 | 0.00 | 88 | 1006.8 |
| 20260510041131 | 51 | 306 | 1.0 | 1.0 | 0.00 | 0.00 | 0.00 | 88 | 1006.7 |
| 20260510040628 | 51 | 90 | 1.0 | 1.0 | 0.00 | 0.00 | 0.00 | 87 | 1006.8 |
| 20260510040125 | 51 | 204 | 2.0 | 3.0 | 0.00 | 0.00 | 0.00 | 87 | 1006.6 |
| 20260510035620 | 51 | 286 | 1.0 | 1.0 | 0.00 | 0.00 | 0.00 | 87 | 1006.6 |
| 20260510035115 | 51 | 263 | 1.0 | 2.0 | 0.00 | 0.00 | 0.00 | 87 | 1006.6 |
| 20260510034613 | 51 | 255 | 1.0 | 1.0 | 0.00 | 0.00 | 0.00 | 87 | 1006.8 |
| 20260510034110 | 51 | 161 | 3.0 | 5.0 | 0.00 | 0.00 | 0.00 | 87 | 1006.8 |
| 20260510033606 | 51 | 241 | 1.0 | 1.0 | 0.00 | 0.00 | 0.00 | 87 | 1006.9 |
| 20260510033104 | 51 | 93 | 1.0 | 2.0 | 0.00 | 0.00 | 0.00 | 87 | 1006.9 |
| 20260510032600 | 51 | 225 | 2.0 | 3.0 | 0.00 | 0.00 | 0.00 | 87 | 1007.0 |
| 20260510032055 | 51 | 197 | 2.0 | 2.0 | 0.00 | 0.00 | 0.00 | 87 | 1006.7 |
| 20260510031550 | 51 | 113 | 3.0 | 3.0 | 0.00 | 0.00 | 0.00 | 87 | 1006.9 |
| 20260510031047 | 51 | 238 | 3.0 | 5.0 | 0.00 | 0.00 | 0.00 | 87 | 1006.8 |
| 20260510030542 | 51 | 184 | 3.0 | 3.0 | 0.00 | 0.00 | 0.00 | 87 | 1006.7 |
| 20260510030040 | 51 | 126 | 3.0 | 6.0 | 0.00 | 0.00 | 0.00 | 86 | 1007.0 |
| 20260510025536 | 51 | 249 | 1.0 | 2.0 | 0.00 | 0.00 | 0.00 | 86 | 1007.0 |
| 20260510025034 | 51 | 128 | 4.0 | 6.0 | 0.00 | 0.00 | 0.00 | 86 | 1006.8 |
| 20260510024531 | 51 | 236 | 1.0 | 1.0 | 0.00 | 0.00 | 0.00 | 86 | 1007.1 |
| 20260510024027 | 51 | 253 | 1.0 | 1.0 | 0.00 | 0.00 | 0.00 | 85 | 1007.0 |
| 20260510023523 | 51 | 148 | 4.0 | 6.0 | 0.00 | 0.00 | 0.00 | 85 | 1007.1 |
| 20260510023020 | 51 | 230 | 1.0 | 2.0 | 0.00 | 0.00 | 0.00 | 85 | 1006.9 |
| 20260510022520 | 51 | 159 | 2.0 | 2.0 | 0.00 | 0.00 | 0.00 | 85 | 1007.1 |
| 20260510022014 | 51 | 99 | 3.0 | 3.0 | 0.00 | 0.00 | 0.00 | 85 | 1006.7 |
| 20260510021511 | 51 | 164 | 3.0 | 6.0 | 0.00 | 0.00 | 0.00 | 85 | 1007.0 |
| 20260510021009 | 51 | 254 | 1.0 | 1.0 | 0.00 | 0.00 | 0.00 | 85 | 1007.3 |
| 20260510020509 | 51 | 198 | 3.0 | 3.0 | 0.00 | 0.00 | 0.00 | 85 | 1007.2 |
| 20260510020005 | 51 | 112 | 2.0 | 2.0 | 0.00 | 0.00 | 0.00 | 85 | 1007.2 |
| 20260510015500 | 51 | 211 | 2.0 | 2.0 | 0.00 | 0.00 | 0.00 | 84 | 1007.3 |
| 20260510014956 | 51 | 271 | 1.0 | 1.0 | 0.00 | 0.00 | 0.00 | 84 | 1007.3 |
| 20260510014454 | 51 | 88 | 2.0 | 2.0 | 0.00 | 0.00 | 0.00 | 84 | 1007.1 |
| 20260510013950 | 51 | 143 | 3.0 | 3.0 | 0.00 | 0.00 | 0.00 | 84 | 1007.4 |
| 20260510013444 | 51 | 106 | 3.0 | 3.0 | 0.00 | 0.00 | 0.00 | 84 | 1007.3 |
| 20260510012941 | 51 | 126 | 3.0 | 7.0 | 0.00 | 0.00 | 0.00 | 84 | 1007.3 |
| 20260510012436 | 51 | 345 | 1.0 | 1.0 | 0.00 | 0.00 | 0.00 | 84 | 1007.2 |
| 20260510011931 | 51 | 267 | 0.0 | 1.0 | 0.00 | 0.00 | 0.00 | 84 | 1007.5 |
| 20260510011425 | 51 | 192 | 2.0 | 2.0 | 0.00 | 0.00 | 0.00 | 84 | 1007.3 |
| 20260510010922 | 51 | 165 | 2.0 | 2.0 | 0.00 | 0.00 | 0.00 | 84 | 1007.4 |
| 20260510010420 | 51 | 143 | 2.0 | 3.0 | 0.00 | 0.00 | 0.00 | 84 | 1007.6 |
| 20260510005916 | 51 | 88 | 2.0 | 2.0 | 0.00 | 0.00 | 0.00 | 84 | 1007.5 |
| 20260510005412 | 51 | 98 | 2.0 | 2.0 | 0.00 | 0.00 | 0.00 | 84 | 1007.7 |
| 20260510004910 | 51 | 170 | 1.0 | 2.0 | 0.00 | 0.00 | 0.00 | 84 | 1007.6 |
| 20260510004407 | 51 | 120 | 1.0 | 2.0 | 0.00 | 0.00 | 0.00 | 84 | 1007.8 |
| 20260510003905 | 51 | 212 | 3.0 | 3.0 | 0.00 | 0.00 | 0.00 | 84 | 1007.6 |
| 20260510003402 | 51 | 204 | 2.0 | 3.0 | 0.00 | 0.00 | 0.00 | 84 | 1007.7 |
| 20260510002901 | 51 | 193 | 2.0 | 2.0 | 0.00 | 0.00 | 0.00 | 84 | 1007.7 |
| 20260510002358 | 51 | 146 | 2.0 | 3.0 | 0.00 | 0.00 | 0.00 | 83 | 1007.7 |
| 20260510001854 | 51 | 82 | 2.0 | 2.0 | 0.00 | 0.00 | 0.00 | 83 | 1007.7 |
| 20260510001352 | 51 | 184 | 3.0 | 5.0 | 0.00 | 0.00 | 0.00 | 83 | 1007.5 |
| 20260510000849 | 51 | 146 | 1.0 | 1.0 | 0.00 | 0.00 | 0.00 | 83 | 1007.6 |
| 20260510000348 | 51 | 133 | 4.0 | 5.0 | 0.00 | 0.00 | 0.00 | 82 | 1007.5 |
| 20260509235842 | 51 | 144 | 3.0 | 3.0 | 0.00 | 0.00 | 0.00 | 82 | 1007.7 |
| 20260509235339 | 51 | 250 | 1.0 | 2.0 | 0.00 | 0.00 | 0.00 | 82 | 1007.7 |
| 20260509234835 | 51 | 186 | 1.0 | 1.0 | 0.00 | 0.00 | 0.00 | 82 | 1007.5 |
| 20260509234332 | 51 | 261 | 1.0 | 1.0 | 0.00 | 0.00 | 0.00 | 82 | 1007.6 |
| 20260509233830 | 51 | 315 | 0.0 | 0.0 | 0.00 | 0.00 | 0.00 | 82 | 1007.5 |
| 20260509233328 | 51 | 237 | 3.0 | 3.0 | 0.00 | 0.00 | 0.00 | 82 | 1007.6 |
| 20260509232823 | 51 | 231 | 2.0 | 2.0 | 0.00 | 0.00 | 0.00 | 82 | 1007.7 |
| 20260509232321 | 51 | 194 | 2.0 | 2.0 | 0.00 | 0.00 | 0.00 | 82 | 1007.6 |
| 20260509231817 | 51 | 278 | 3.0 | 3.0 | 0.00 | 0.00 | 0.00 | 82 | 1007.5 |
| 20260509231314 | 52 | 188 | 2.0 | 3.0 | 0.00 | 0.00 | 0.00 | 82 | 1007.6 |
| 20260509230812 | 52 | 207 | 3.0 | 5.0 | 0.00 | 0.00 | 0.00 | 81 | 1007.5 |
| 20260509230308 | 52 | 255 | 1.0 | 2.0 | 0.00 | 0.00 | 0.00 | 82 | 1007.4 |
| 20260509225803 | 52 | 164 | 2.0 | 2.0 | 0.00 | 0.00 | 0.00 | 81 | 1007.5 |
| 20260509225300 | 52 | 2 | 0.0 | 1.0 | 0.00 | 0.00 | 0.00 | 81 | 1007.5 |
| 20260509224756 | 52 | 184 | 3.0 | 3.0 | 0.00 | 0.00 | 0.00 | 81 | 1007.7 |
| 20260509224253 | 52 | 177 | 3.0 | 3.0 | 0.00 | 0.00 | 0.00 | 81 | 1007.5 |
| 20260509223750 | 52 | 203 | 3.0 | 3.0 | 0.00 | 0.00 | 0.00 | 80 | 1007.8 |
| 20260509223247 | 52 | 187 | 3.0 | 3.0 | 0.00 | 0.00 | 0.00 | 80 | 1007.7 |
| 20260509222743 | 52 | 39 | 1.0 | 1.0 | 0.00 | 0.00 | 0.00 | 81 | 1007.8 |
| 20260509222239 | 52 | 150 | 2.0 | 3.0 | 0.00 | 0.00 | 0.00 | 80 | 1007.8 |
| 20260509221734 | 52 | 162 | 4.0 | 5.0 | 0.00 | 0.00 | 0.00 | 80 | 1008.0 |
| 20260509221231 | 52 | 166 | 3.0 | 3.0 | 0.00 | 0.00 | 0.00 | 80 | 1007.5 |
| 20260509220727 | 52 | 324 | 0.0 | 1.0 | 0.00 | 0.00 | 0.00 | 80 | 1007.7 |
| 20260509220224 | 52 | 188 | 2.0 | 2.0 | 0.00 | 0.00 | 0.00 | 80 | 1007.8 |
| 20260509215719 | 52 | 174 | 1.0 | 2.0 | 0.00 | 0.00 | 0.00 | 80 | 1007.9 |
| 20260509215216 | 52 | 175 | 3.0 | 3.0 | 0.00 | 0.00 | 0.00 | 80 | 1007.8 |
| 20260509214713 | 52 | 106 | 3.0 | 5.0 | 0.00 | 0.00 | 0.00 | 80 | 1007.9 |
| 20260509214210 | 52 | 203 | 4.0 | 5.0 | 0.00 | 0.00 | 0.00 | 80 | 1008.0 |
| 20260509213707 | 52 | 184 | 2.0 | 2.0 | 0.00 | 0.00 | 0.00 | 80 | 1008.1 |
| 20260509213202 | 52 | 158 | 2.0 | 2.0 | 0.00 | 0.00 | 0.00 | 80 | 1007.9 |
| 20260509212701 | 52 | 150 | 3.0 | 3.0 | 0.00 | 0.00 | 0.00 | 80 | 1008.0 |
| 20260509212157 | 52 | 147 | 3.0 | 5.0 | 0.00 | 0.00 | 0.00 | 79 | 1007.9 |
| 20260509211653 | 52 | 202 | 2.0 | 2.0 | 0.00 | 0.00 | 0.00 | 79 | 1007.9 |
| 20260509211149 | 52 | 265 | 1.0 | 1.0 | 0.00 | 0.00 | 0.00 | 80 | 1008.0 |
| 20260509210646 | 52 | 163 | 2.0 | 3.0 | 0.00 | 0.00 | 0.00 | 79 | 1008.1 |
| 20260509210144 | 52 | 201 | 2.0 | 5.0 | 0.00 | 0.00 | 0.00 | 79 | 1008.2 |
| 20260509205638 | 52 | 127 | 9.0 | 10.0 | 0.00 | 0.00 | 0.00 | 78 | 1008.2 |
| 20260509205133 | 52 | 152 | 5.0 | 6.0 | 0.00 | 0.00 | 0.00 | 78 | 1008.3 |
| 20260509204630 | 52 | 178 | 2.0 | 2.0 | 0.00 | 0.00 | 0.00 | 79 | 1008.3 |
| 20260509204126 | 52 | 80 | 5.0 | 8.0 | 0.00 | 0.00 | 0.00 | 79 | 1008.3 |
| 20260509203622 | 52 | 200 | 3.0 | 3.0 | 0.00 | 0.00 | 0.00 | 79 | 1008.3 |
| 20260509203120 | 52 | 127 | 3.0 | 3.0 | 0.00 | 0.00 | 0.00 | 79 | 1008.3 |
| 20260509202620 | 52 | 181 | 1.0 | 1.0 | 0.00 | 0.00 | 0.00 | 77 | 1008.5 |
| 20260509202115 | 53 | 115 | 4.0 | 5.0 | 0.00 | 0.00 | 0.00 | 77 | 1008.2 |
| 20260509201610 | 53 | 210 | 3.0 | 3.0 | 0.00 | 0.00 | 0.00 | 75 | 1008.4 |
| 20260509201108 | 53 | 181 | 6.0 | 7.0 | 0.00 | 0.00 | 0.00 | 74 | 1008.5 |
| 20260509200603 | 53 | 88 | 4.0 | 6.0 | 0.00 | 0.00 | 0.00 | 73 | 1008.5 |
| 20260509200059 | 53 | 192 | 2.0 | 3.0 | 0.00 | 0.00 | 0.00 | 73 | 1008.3 |
| 20260509195555 | 54 | 115 | 3.0 | 5.0 | 0.00 | 0.00 | 0.00 | 72 | 1008.4 |
| 20260509195050 | 54 | 198 | 3.0 | 3.0 | 0.00 | 0.00 | 0.00 | 72 | 1008.3 |
| 20260509194549 | 54 | 126 | 8.0 | 10.0 | 0.00 | 0.00 | 0.00 | 71 | 1008.4 |
| 20260509194048 | 55 | 109 | 5.0 | 7.0 | 0.00 | 0.00 | 0.00 | 71 | 1008.5 |
| 20260509193542 | 55 | 165 | 2.0 | 2.0 | 0.00 | 0.00 | 0.00 | 72 | 1008.4 |
| 20260509193039 | 54 | 97 | 3.0 | 3.0 | 0.00 | 0.00 | 0.00 | 72 | 1008.7 |
| 20260509192536 | 54 | 99 | 5.0 | 6.0 | 0.00 | 0.00 | 0.00 | 72 | 1008.4 |
| 20260509192031 | 55 | 126 | 6.0 | 7.0 | 0.00 | 0.00 | 0.00 | 72 | 1008.3 |
| 20260509191525 | 54 | 170 | 4.0 | 6.0 | 0.00 | 0.00 | 0.00 | 72 | 1008.6 |
| 20260509191021 | 54 | 163 | 3.0 | 3.0 | 0.00 | 0.00 | 0.00 | 74 | 1008.5 |
| 20260509190519 | 54 | 137 | 4.0 | 6.0 | 0.00 | 0.00 | 0.00 | 74 | 1008.6 |
| 20260509190017 | 53 | 197 | 3.0 | 3.0 | 0.00 | 0.00 | 0.00 | 74 | 1008.5 |
| 20260509185514 | 53 | 133 | 2.0 | 3.0 | 0.00 | 0.00 | 0.00 | 74 | 1008.8 |
| 20260509185010 | 53 | 169 | 6.0 | 9.0 | 0.00 | 0.00 | 0.00 | 74 | 1009.0 |
| 20260509184509 | 53 | 66 | 3.0 | 5.0 | 0.00 | 0.00 | 0.00 | 74 | 1008.9 |
| 20260509184004 | 53 | 125 | 4.0 | 5.0 | 0.00 | 0.00 | 0.00 | 73 | 1008.9 |
| 20260509183459 | 53 | 128 | 4.0 | 6.0 | 0.00 | 0.00 | 0.00 | 73 | 1009.0 |
| 20260509182955 | 54 | 131 | 8.0 | 10.0 | 0.00 | 0.00 | 0.00 | 70 | 1009.1 |
| 20260509182452 | 54 | 226 | 7.0 | 9.0 | 0.00 | 0.00 | 0.00 | 66 | 1009.1 |
| 20260509181949 | 54 | 187 | 3.0 | 5.0 | 0.00 | 0.00 | 0.00 | 65 | 1009.1 |
| 20260509181447 | 54 | 226 | 6.0 | 8.0 | 0.00 | 0.00 | 0.00 | 66 | 1009.2 |
| 20260509180945 | 54 | 160 | 3.0 | 3.0 | 0.00 | 0.00 | 0.00 | 66 | 1009.1 |
| 20260509180440 | 55 | 150 | 4.0 | 5.0 | 0.00 | 0.00 | 0.00 | 63 | 1009.0 |
| 20260509175937 | 55 | 287 | 0.0 | 1.0 | 0.00 | 0.00 | 0.00 | 61 | 1009.2 |
| 20260509175433 | 56 | 160 | 6.0 | 7.0 | 0.00 | 0.00 | 0.00 | 60 | 1009.2 |
| 20260509174929 | 56 | 122 | 3.0 | 3.0 | 0.00 | 0.00 | 0.00 | 59 | 1009.1 |
| 20260509174426 | 56 | 156 | 2.0 | 3.0 | 0.00 | 0.00 | 0.00 | 59 | 1009.0 |
| 20260509173922 | 56 | 174 | 6.0 | 8.0 | 0.00 | 0.00 | 0.00 | 56 | 1009.1 |
| 20260509173421 | 57 | 271 | 3.0 | 3.0 | 0.00 | 0.00 | 0.00 | 54 | 1009.0 |
| 20260509172918 | 56 | 213 | 3.0 | 5.0 | 0.00 | 0.00 | 0.00 | 55 | 1009.2 |
| 20260509172415 | 56 | 277 | 4.0 | 5.0 | 0.00 | 0.00 | 0.00 | 53 | 1009.1 |
| 20260509171910 | 57 | 283 | 2.0 | 2.0 | 0.00 | 0.00 | 0.00 | 52 | 1009.2 |
| 20260509171407 | 58 | 213 | 6.0 | 9.0 | 0.00 | 0.00 | 0.00 | 49 | 1009.1 |
| 20260509170903 | 59 | 223 | 4.0 | 5.0 | 0.00 | 0.00 | 0.00 | 47 | 1009.0 |
| 20260509170359 | 59 | 290 | 2.0 | 2.0 | 0.00 | 0.00 | 0.00 | 47 | 1009.0 |
| 20260509165854 | 59 | 245 | 4.0 | 6.0 | 0.00 | 0.00 | 0.00 | 46 | 1009.1 |
| 20260509165349 | 59 | 276 | 4.0 | 6.0 | 0.00 | 0.00 | 0.00 | 45 | 1009.2 |
| 20260509164845 | 58 | 172 | 4.0 | 7.0 | 0.00 | 0.00 | 0.00 | 46 | 1009.4 |
| 20260509164341 | 58 | 291 | 5.0 | 6.0 | 0.00 | 0.00 | 0.00 | 46 | 1009.5 |
| 20260509163837 | 58 | 291 | 1.0 | 1.0 | 0.00 | 0.00 | 0.00 | 46 | 1009.4 |
| 20260509163334 | 59 | 127 | 3.0 | 3.0 | 0.00 | 0.00 | 0.00 | 46 | 1009.4 |
| 20260509162833 | 58 | 224 | 3.0 | 6.0 | 0.00 | 0.00 | 0.00 | 45 | 1009.4 |
| 20260509162326 | 59 | 320 | 3.0 | 5.0 | 0.00 | 0.00 | 0.00 | 44 | 1009.3 |
| 20260509161823 | 59 | 294 | 3.0 | 3.0 | 0.00 | 0.00 | 0.00 | 44 | 1009.4 |
| 20260509161319 | 59 | 287 | 3.0 | 5.0 | 0.00 | 0.00 | 0.00 | 43 | 1009.7 |
| 20260509160815 | 60 | 260 | 2.0 | 3.0 | 0.00 | 0.00 | 0.00 | 38 | 1009.8 |